Wind_Speed
18 17 16 18 19 18 19 18 17 15 15 15 15 16 16 15 14 13 12 11 11 11 11 12 13 13 13 13 12 10 13 10 14 12 11 11 11 12 11 13 14 18 20
17 18 19 16 17 18 18 19 18 19 17 16 16 17 18 18 17 16 15 14 13 13 12 12 13 14 15 15 14 10 9 9 15 16 17 15 14 12 10 8 15 17 18
9 11 14 16 15 15 18 20 20 19 18 17 16 17 19 20 20 20 19 18 17 16 15 15 15 15 15 13 13 8 9 14 17 17 21 17 13 11 12 11 16 14 13
10 12 14 13 15 17 16 17 18 19 19 18 19 20 21 21 22 21 21 21 20 20 18 17 17 17 16 15 13 12 11 15 18 15 18 11 10 10 9 13 15 12 13
8 8 10 11 11 12 14 17 18 18 18 16 19 20 21 22 23 23 23 24 24 23 21 20 20 19 18 18 17 14 18 15 20 16 17 15 12 12 14 15 15 14 14
8 9 9 9 9 10 12 9 10 11 12 14 17 22 22 22 23 24 24 26 27 26 25 24 23 22 21 20 18 17 18 14 16 16 19 18 14 13 14 14 15 14 13
6 8 8 9 10 10 10 11 13 14 15 16 19 23 25 27 28 24 24 25 25 27 28 28 27 26 24 23 22 20 19 15 18 19 20 20 15 14 14 15 15 15 15
6 6 7 8 9 9 10 12 17 19 18 18 18 22 20 23 16 7 13 13 14 19 26 30 30 29 28 26 25 24 24 25 20 21 22 24 18 16 15 16 16 15 15
5 7 8 9 10 10 10 11 12 14 16 17 18 14 8 8 26 28 22 23 25 20 13 16 19 26 30 29 29 27 27 27 28 26 22 25 28 18 18 17 16 16 16
7 7 8 9 10 10 10 10 11 12 13 14 15 15 15 19 20 24 28 33 33 32 29 27 22 21 20 21 26 30 29 30 30 30 27 27 33 27 20 19 18 18 17
11 11 11 11 12 13 12 10 9 10 12 13 13 16 18 21 23 24 36 37 38 35 35 35 34 34 31 29 27 24 26 31 32 31 30 31 36 35 27 23 21 20 20
9 10 11 13 13 14 16 15 14 13 13 11 12 14 16 17 21 24 32 40 43 45 40 37 38 37 36 35 34 32 30 29 31 32 32 32 37 37 32 30 25 23 22
10 11 13 13 14 14 14 15 15 15 16 16 16 15 14 15 19 22 26 33 40 43 44 42 38 36 36 36 37 36 34 33 31 32 34 34 36 37 34 33 30 26 25
12 12 12 13 15 15 15 16 18 18 19 19 19 20 20 19 19 20 23 25 35 40 38 36 37 34 32 34 36 36 38 35 31 30 33 36 37 37 35 35 33 30 28
9 10 12 13 15 17 19 21 23 24 24 25 26 27 28 27 26 25 25 25 24 30 46 36 39 37 36 34 33 35 37 38 37 34 33 36 39 41 39 36 35 33 31
10 12 13 15 17 19 21 23 25 28 31 33 35 35 34 34 34 32 31 31 30 31 38 44 47 44 40 36 33 33 36 38 40 37 34 34 37 41 41 39 37 35 34
15 16 18 20 22 23 26 29 31 34 35 37 38 41 42 40 40 39 38 37 36 36 42 47 47 47 46 44 38 35 33 35 39 43 40 36 36 39 42 42 40 38 37
20 21 22 24 27 30 33 36 39 42 44 45 44 43 44 44 45 45 43 42 42 41 43 48 47 48 49 47 46 42 38 35 35 37 42 45 41 39 40 42 41 41 40
26 27 29 30 32 35 37 40 43 46 47 48 48 47 45 44 46 46 46 46 46 45 44 47 49 46 48 49 49 48 45 41 38 35 36 42 48 46 44 44 44 43 42
29 30 32 33 36 37 40 43 45 47 47 47 47 48 49 47 46 44 45 45 43 43 43 43 44 42 45 48 48 49 50 47 44 39 37 37 40 47 48 48 48 47 43
31 32 33 35 36 38 41 43 44 45 47 48 48 49 49 47 45 41 39 43 41 39 39 38 37 33 35 35 40 42 46 46 48 44 42 40 40 41 49 50 51 51 48
33 33 35 36 37 40 41 41 43 46 47 48 50 49 48 45 42 37 32 31 32 35 39 39 40 37 38 33 30 34 40 40 44 41 30 39 33 38 44 48 54 52 52
34 35 36 36 38 40 40 41 43 45 47 47 47 45 43 39 38 38 36 30 30 29 31 36 44 47 42 40 36 35 37 40 46 45 41 49 43 45 40 41 46 52 53
34 36 35 37 39 40 40 42 43 44 44 44 42 40 38 37 34 29 30 32 32 32 31 31 34 39 40 39 39 42 45 39 41 41 41 49 44 51 44 42 43 42 49
35 36 36 38 40 40 39 41 42 42 43 42 39 35 33 34 31 27 30 34 37 39 37 34 35 37 38 38 38 38 42 41 51 49 47 46 53 49 46 48 44 42 45
36 36 36 37 38 38 37 38 38 37 39 39 36 35 35 29 28 29 32 36 41 43 43 42 41 41 40 39 34 33 39 45 43 49 38 43 48 43 43 50 49 46 43
Wind_Direction
258 259 270 275 276 278 284 294 307 303 292 288 279 272 271 272 273 275 278 284 292 301 309 314 320 321 321 317 312 306 301 297 300 308 308 291 273 263 262 254 247 247 248
254 262 266 283 277 281 282 289 295 297 298 292 288 283 280 279 278 277 277 280 284 291 298 304 310 314 317 316 318 306 286 285 293 312 312 300 285 263 254 251 252 260 258
249 255 266 276 281 280 285 287 286 296 295 303 300 288 279 277 278 281 283 284 285 288 291 297 301 303 305 304 302 295 273 265 281 302 299 307 280 260 261 260 266 269 262
250 252 258 263 271 269 278 281 292 295 292 295 301 305 294 283 276 273 271 273 275 278 282 286 289 294 297 295 288 278 255 271 287 293 287 308 284 270 255 254 272 266 267
286 286 281 275 284 283 272 271 266 271 272 283 293 296 298 293 288 283 277 273 270 270 271 273 277 281 286 290 287 265 262 267 273 281 283 305 295 279 267 271 277 278 271
275 265 277 284 282 284 284 305 297 289 296 299 295 291 295 296 290 287 284 282 278 276 275 274 274 276 279 280 282 278 251 271 266 266 280 296 287 287 278 277 272 275 274
300 296 290 289 297 300 298 299 302 302 297 297 297 297 286 287 291 291 286 282 281 278 275 274 274 275 275 277 279 274 254 258 273 269 271 285 285 287 283 278 273 270 269
310 304 297 297 298 308 307 310 309 307 306 307 308 306 311 300 303 293 310 289 289 290 276 272 272 274 274 274 273 272 267 261 257 262 270 276 281 283 283 284 278 268 260
337 325 324 315 307 300 296 294 290 293 299 300 304 310 320 300 302 295 283 283 289 294 302 300 290 282 277 275 273 271 270 268 265 258 254 264 274 282 283 283 278 270 262
22 10 359 349 342 334 316 306 298 299 300 303 301 302 299 299 310 308 297 292 288 286 283 284 286 284 289 286 280 275 273 270 266 263 255 246 260 273 282 281 277 270 261
32 31 28 27 26 21 13 358 342 331 317 307 308 305 297 294 298 305 306 303 295 287 285 283 281 278 279 279 278 280 282 275 270 266 260 248 253 267 274 278 276 270 265
24 18 14 10 9 7 7 7 13 9 9 349 329 316 314 317 306 302 302 300 300 297 294 288 287 285 278 274 273 273 276 280 276 269 262 253 252 261 266 272 273 269 262
6 9 7 6 4 3 360 353 354 357 355 354 349 344 341 330 317 307 300 299 301 300 299 297 292 286 286 282 274 270 270 273 275 271 266 258 254 258 262 265 268 267 262
351 354 351 350 347 344 342 339 339 341 339 336 333 329 326 323 318 316 315 315 311 308 307 304 305 301 294 287 283 275 266 265 272 276 270 264 259 260 260 261 263 264 259
328 328 331 332 330 330 330 329 330 330 327 326 323 320 317 316 310 307 305 303 304 302 307 306 304 307 303 297 289 283 276 267 265 268 271 267 263 260 260 261 262 261 257
328 327 324 324 324 325 324 324 324 324 322 322 321 316 312 309 304 302 299 295 291 289 286 295 298 301 301 299 297 288 280 274 266 263 267 268 264 264 263 261 260 259 256
331 327 325 324 324 324 324 324 325 323 321 319 315 312 310 308 303 299 296 292 289 286 285 286 288 291 292 293 294 293 290 279 272 266 262 264 266 264 263 262 260 257 254
326 323 321 321 322 324 324 324 323 322 320 318 315 311 309 307 304 302 298 293 290 288 287 287 286 285 285 287 289 289 288 285 280 271 265 259 259 263 264 261 259 256 253
324 322 321 321 322 322 322 321 320 319 317 316 314 312 309 305 302 300 298 296 294 291 286 287 288 286 282 282 283 283 283 282 281 281 271 265 258 256 260 263 261 257 252
320 318 317 318 319 320 319 319 318 316 314 312 311 309 307 305 302 298 295 295 295 292 290 288 288 288 286 283 281 282 283 283 282 279 277 271 263 259 255 257 261 259 255
314 313 313 314 315 316 317 318 316 314 312 311 309 307 305 304 300 294 289 288 288 288 288 287 284 284 282 282 281 285 283 284 282 279 277 269 266 260 255 252 255 258 256
309 309 311 312 314 315 317 317 314 313 312 311 310 308 307 307 304 298 291 284 277 276 278 282 283 279 277 279 280 281 283 283 284 281 286 277 271 267 263 254 253 255 257
306 309 310 311 313 315 317 315 314 313 312 311 310 310 309 306 305 304 301 293 289 282 274 274 273 271 278 275 275 274 278 275 273 274 276 276 273 271 266 265 255 252 255
305 308 308 311 314 317 317 315 314 314 312 311 312 313 310 311 311 304 303 301 300 297 294 290 287 288 287 288 285 277 264 270 269 265 266 267 267 270 268 264 262 256 251
303 306 309 313 315 316 316 316 317 315 313 314 315 316 318 316 313 302 300 298 296 294 293 285 281 279 277 276 275 279 276 272 268 269 261 259 262 264 265 268 263 258 253
303 306 308 311 313 316 319 317 318 317 314 316 319 319 321 307 303 299 295 294 294 296 298 299 297 297 296 293 290 279 275 272 272 267 263 250 254 253 258 261 263 260 256
Height
1555 1557 1558 1559 1560 1561 1562 1562 1562 1562 1561 1561 1562 1562 1563 1564 1564 1565 1565 1565 1565 1565 1565 1564 1564 1562 1562 1561 1560 1559 1558 1558 1556 1556 1556 1556 1555 1556 1556 1556 1557 1557 1558
1553 1554 1555 1556 1558 1558 1559 1559 1559 1559 1559 1559 1559 1560 1561 1561 1562 1562 1563 1563 1564 1564 1563 1563 1562 1561 1560 1559 1558 1558 1558 1558 1556 1555 1554 1554 1553 1554 1554 1554 1553 1554 1554
1549 1551 1552 1553 1554 1555 1556 1556 1556 1557 1557 1557 1557 1556 1556 1557 1558 1559 1560 1560 1560 1561 1561 1561 1561 1560 1560 1559 1558 1558 1558 1557 1555 1554 1552 1551 1551 1551 1551 1551 1550 1551 1551
1547 1547 1548 1549 1550 1550 1551 1552 1553 1553 1554 1554 1554 1554 1553 1553 1553 1554 1555 1556 1557 1557 1558 1558 1558 1558 1558 1557 1557 1556 1557 1555 1553 1553 1550 1549 1549 1549 1549 1548 1548 1548 1548
1545 1545 1546 1546 1546 1547 1547 1547 1548 1549 1550 1550 1550 1550 1550 1550 1550 1550 1551 1552 1552 1553 1553 1554 1554 1555 1555 1555 1554 1554 1554 1554 1552 1551 1548 1546 1546 1546 1546 1546 1546 1546 1546
1545 1544 1545 1545 1544 1545 1545 1545 1544 1544 1545 1545 1544 1546 1546 1546 1545 1546 1547 1547 1547 1548 1549 1550 1550 1551 1550 1550 1550 1550 1552 1551 1550 1549 1546 1544 1543 1543 1543 1543 1543 1543 1543
1544 1545 1544 1543 1543 1543 1543 1543 1543 1543 1543 1542 1540 1540 1540 1541 1541 1541 1541 1541 1542 1543 1543 1544 1545 1546 1546 1546 1546 1546 1547 1548 1547 1547 1544 1542 1541 1540 1540 1540 1540 1540 1540
1544 1544 1544 1544 1542 1541 1541 1541 1541 1540 1540 1540 1539 1537 1534 1536 1536 1535 1536 1536 1536 1536 1537 1538 1539 1540 1540 1541 1541 1541 1541 1542 1543 1545 1543 1540 1538 1538 1537 1537 1536 1536 1536
1542 1542 1542 1542 1542 1540 1539 1539 1539 1539 1539 1539 1538 1539 1537 1532 1529 1530 1530 1531 1531 1532 1531 1532 1532 1533 1534 1534 1535 1535 1535 1536 1536 1537 1539 1538 1535 1534 1534 1533 1533 1533 1533
1541 1541 1540 1541 1541 1540 1538 1536 1536 1536 1536 1536 1537 1536 1536 1534 1531 1521 1522 1524 1526 1525 1526 1526 1526 1526 1526 1527 1528 1529 1529 1530 1529 1530 1532 1533 1531 1530 1530 1530 1529 1529 1529
1542 1541 1540 1540 1539 1540 1539 1537 1535 1534 1534 1533 1532 1532 1532 1531 1530 1526 1516 1514 1516 1519 1520 1519 1518 1519 1520 1520 1521 1521 1522 1523 1523 1523 1524 1526 1526 1525 1526 1526 1526 1525 1525
1542 1540 1541 1541 1539 1540 1540 1540 1534 1534 1533 1533 1532 1531 1529 1528 1526 1524 1518 1513 1509 1505 1508 1510 1510 1511 1512 1512 1513 1514 1514 1515 1515 1516 1516 1518 1518 1519 1521 1521 1521 1521 1520
1542 1541 1542 1541 1540 1540 1538 1541 1536 1531 1532 1530 1531 1530 1529 1527 1525 1521 1517 1511 1504 1500 1499 1499 1502 1503 1503 1504 1504 1505 1506 1506 1507 1507 1508 1509 1511 1511 1513 1514 1515 1515 1515
1542 1541 1541 1540 1539 1540 1539 1538 1536 1530 1530 1529 1527 1526 1525 1524 1521 1519 1515 1510 1500 1495 1492 1492 1492 1493 1495 1495 1495 1496 1495 1496 1498 1499 1500 1500 1501 1503 1504 1506 1507 1509 1509
1543 1542 1541 1540 1540 1537 1535 1535 1532 1528 1528 1525 1524 1522 1521 1520 1517 1515 1512 1509 1503 1492 1482 1482 1485 1485 1486 1485 1485 1485 1486 1487 1488 1489 1490 1491 1492 1493 1495 1497 1499 1501 1502
1541 1540 1539 1537 1536 1533 1532 1530 1527 1525 1521 1518 1516 1515 1515 1513 1510 1508 1505 1503 1499 1494 1483 1480 1476 1476 1477 1476 1476 1475 1475 1477 1477 1479 1481 1482 1482 1484 1485 1488 1490 1491 1493
1537 1536 1534 1533 1530 1528 1525 1522 1519 1517 1515 1513 1512 1508 1505 1503 1499 1497 1495 1493 1489 1487 1476 1471 1470 1468 1466 1465 1467 1467 1465 1464 1465 1467 1469 1471 1472 1473 1474 1477 1479 1481 1483
1532 1530 1528 1526 1523 1520 1517 1513 1510 1508 1505 1503 1501 1498 1495 1491 1487 1484 1483 1481 1477 1475 1469 1459 1461 1459 1457 1458 1455 1455 1456 1455 1454 1455 1456 1459 1460 1462 1463 1464 1468 1470 1473
1527 1524 1521 1519 1517 1513 1510 1506 1503 1500 1497 1493 1489 1485 1483 1480 1476 1474 1471 1466 1463 1461 1458 1451 1445 1448 1448 1448 1444 1443 1442 1443 1444 1444 1444 1445 1447 1449 1451 1452 1455 1458 1461
1522 1519 1516 1513 1510 1507 1503 1499 1496 1492 1488 1485 1481 1475 1471 1468 1465 1463 1459 1455 1452 1448 1446 1442 1436 1436 1436 1437 1436 1432 1429 1431 1430 1432 1433 1432 1434 1436 1438 1441 1442 1445 1449
1517 1514 1511 1508 1505 1501 1497 1493 1488 1484 1479 1474 1470 1465 1460 1456 1453 1450 1447 1444 1443 1440 1436 1432 1427 1427 1424 1426 1425 1424 1419 1418 1415 1417 1418 1418 1421 1421 1423 1426 1429 1432 1437
1511 1509 1506 1502 1499 1495 1491 1486 1481 1475 1470 1463 1457 1453 1448 1443 1439 1437 1435 1434 1434 1431 1427 1424 1419 1418 1415 1418 1418 1415 1412 1411 1405 1404 1407 1404 1409 1407 1408 1411 1416 1420 1424
1505 1502 1499 1496 1492 1487 1483 1478 1473 1466 1460 1453 1447 1441 1437 1434 1430 1426 1423 1421 1419 1418 1418 1417 1410 1407 1405 1406 1407 1405 1405 1403 1397 1397 1399 1391 1396 1393 1396 1398 1402 1407 1412
1498 1495 1492 1488 1483 1479 1475 1469 1463 1457 1450 1444 1438 1433 1428 1424 1422 1418 1415 1412 1410 1408 1407 1404 1401 1396 1395 1394 1394 1394 1393 1390 1385 1384 1389 1381 1384 1377 1383 1386 1389 1392 1397
1491 1488 1484 1479 1475 1471 1466 1460 1454 1447 1440 1434 1429 1426 1423 1418 1414 1413 1410 1405 1402 1398 1397 1395 1392 1389 1387 1387 1387 1385 1380 1380 1369 1370 1378 1374 1369 1370 1370 1371 1375 1379 1383
1483 1479 1476 1472 1467 1462 1457 1452 1445 1438 1431 1426 1423 1419 1416 1413 1411 1408 1404 1398 1392 1388 1385 1380 1376 1374 1373 1372 1373 1373 1371 1366 1362 1359 1362 1364 1360 1364 1361 1357 1360 1365 1369